Weather History for KSEE - November, 2012

Change the Weather History Date:

Saturday, November 3, 2012

  Actual Average Record
Temperature  
Mean Temperature 66 °F -  
Max Temperature 84 °F 75 °F 98 °F (2010)
Min Temperature 48 °F 50 °F 39 °F (1989)
Cooling Degree Days 1    
Growing Degree Days 16 (Base 50)    
Moisture  
Dew Point 51 °F    
Average Humidity 83    
Maximum Humidity 100    
Minimum Humidity 33    
Precipitation  
Precipitation 0.00 in - - ()
Sea Level Pressure  
Sea Level Pressure 30.02 in    
Wind  
Wind Speed 2 mph (WNW)    
Max Wind Speed 12 mph    
Max Gust Speed -    
Visibility 9 miles    
Events      
Averages and records for this station are not official NWS values.
T = Trace of Precipitation, MM = Missing Value Source: NWS Daily Summary

Daily Weather History Graph

Daily Weather History Graph

Search for Another Location

Airport or City:

Trip Planner

Search our weather history database for the weather conditions in past years. The results will help you decide how hot, cold, wet, or windy it might be!

Date:

Astronomy

Nov. 03, 2012 Rise Set
Actual Time 7:07 AM PDT 5:54 PM PDT
Civil Twilight 6:42 AM PDT 6:20 PM PDT
Nautical Twilight 6:13 AM PDT 6:49 PM PDT
Astronomical Twilight 5:44 AM PDT 7:18 PM PDT
Moon 9:44 PM PDT 11:09 AM PDT
Length of Visible Light 11h 37m
Length of Day
10h 46m
Waning Gibbous, 79% of the Moon is Illuminated
Nov 3
Waning Gibbous
Nov 6
Last Quarter
Nov 13
New
Nov 20
First Quarter
Nov 28
Full

Hourly Weather History & Observations

Time (PDT) Temp. Heat Index Dew Point Humidity Pressure Visibility Wind Dir Wind Speed Gust Speed Precip Events Conditions
12:15 AM 51.8 °F - 48.2 °F 88% 30.00 in 10.0 mi NW 3.5 mph - N/A   Clear
12:35 AM 51.8 °F - 48.2 °F 88% 30.00 in 10.0 mi WNW 3.5 mph - N/A   Clear
12:55 AM 51.8 °F - 48.2 °F 88% 30.00 in 10.0 mi WNW 3.5 mph - N/A   Clear
1:15 AM 51.8 °F - 48.2 °F 88% 30.00 in 10.0 mi Calm Calm - N/A   Clear
1:35 AM 51.8 °F - 48.2 °F 88% 30.01 in 10.0 mi Calm Calm - N/A   Clear
1:55 AM 50.0 °F - 48.2 °F 94% 30.01 in 10.0 mi Calm Calm - N/A   Clear
2:15 AM 50.0 °F - 48.2 °F 94% 30.01 in 10.0 mi Calm Calm - N/A   Clear
2:35 AM 50.0 °F - 48.2 °F 94% 30.01 in 10.0 mi Calm Calm - N/A   Clear
2:55 AM 50.0 °F - 48.2 °F 94% 30.01 in 10.0 mi Calm Calm - N/A   Clear
3:15 AM 50.0 °F - 48.2 °F 94% 30.01 in 10.0 mi Calm Calm - N/A   Clear
3:35 AM 48.2 °F - 48.2 °F 100% 30.00 in 10.0 mi Calm Calm - N/A   Clear
3:55 AM 48.2 °F - 48.2 °F 100% 30.00 in 10.0 mi North - - N/A   Clear
4:15 AM 48.2 °F - 46.4 °F 93% 30.01 in 10.0 mi Calm Calm - N/A   Clear
4:35 AM 48.2 °F - 46.4 °F 93% 30.01 in 10.0 mi Calm Calm - N/A   Clear
4:55 AM 48.2 °F - 46.4 °F 93% 30.01 in 10.0 mi Calm Calm - N/A   Clear
5:15 AM 48.2 °F - 46.4 °F 93% 30.02 in 9.0 mi Calm Calm - N/A   Clear
5:35 AM 48.2 °F - 48.2 °F 100% 30.02 in 9.0 mi Calm Calm - N/A   Mostly Cloudy
5:55 AM 48.2 °F - 46.4 °F 93% 30.03 in 10.0 mi Calm Calm - N/A   Scattered Clouds
6:15 AM 48.2 °F - 48.2 °F 100% 30.03 in 10.0 mi Calm Calm - N/A   Mostly Cloudy
6:47 AM 48.2 °F - 46.4 °F 93% 30.02 in 10.0 mi Calm Calm - N/A   Mostly Cloudy
7:21 AM 48.2 °F - 46.4 °F 93% 30.04 in 10.0 mi Calm Calm - N/A   Scattered Clouds
9:47 AM 60.8 °F - 48.2 °F 63% 30.05 in 12.0 mi Calm Calm - N/A   Partly Cloudy
10:47 AM 69.8 °F - 50.0 °F 49% 30.04 in 12.0 mi Calm Calm - N/A   Partly Cloudy
11:47 AM 77.0 °F - 51.8 °F 41% 30.02 in 15.0 mi Calm Calm - N/A   Clear
1:47 PM 84.2 °F - 51.8 °F 33% 29.97 in 25.0 mi West 11.5 mph - N/A   Clear
2:47 PM 80.6 °F 80.3 °F 53.6 °F 39% 29.96 in 25.0 mi West 11.5 mph - N/A   Clear
3:55 PM 77.0 °F - 53.6 °F 44% 29.97 in 25.0 mi West 9.2 mph - N/A   Clear
4:47 PM 75.2 °F - 53.6 °F 47% 29.98 in 25.0 mi Variable 6.9 mph - N/A   Clear
5:47 PM 69.8 °F - 55.4 °F 60% 30.00 in 12.0 mi Variable 6.9 mph - N/A   Clear
6:47 PM 66.2 °F - 57.2 °F 73% 30.02 in 8.0 mi Calm Calm - N/A   Clear
7:47 PM 62.6 °F - 57.2 °F 82% 30.03 in 5.0 mi Calm Calm - N/A   Clear
9:15 PM 60.8 °F - 55.4 °F 82% 30.04 in 5.0 mi West 4.6 mph - N/A   Clear
9:35 PM 59.0 °F - 55.4 °F 88% 30.05 in 5.0 mi WNW 3.5 mph - N/A   Clear
9:55 PM 59.0 °F - 57.2 °F 94% 30.06 in 4.0 mi WNW 3.5 mph - N/A   Clear
10:15 PM 59.0 °F - 57.2 °F 94% 30.06 in 5.0 mi NW 3.5 mph - N/A   Clear
10:35 PM 57.2 °F - 55.4 °F 94% 30.06 in 5.0 mi Calm Calm - N/A   Clear
10:55 PM 57.2 °F - 55.4 °F 94% 30.06 in 5.0 mi Calm Calm - N/A   Clear
11:15 PM 57.2 °F - 55.4 °F 94% 30.06 in 5.0 mi Calm Calm - N/A   Clear
11:35 PM 55.4 °F - 55.4 °F 100% 30.06 in 5.0 mi Calm Calm - N/A   Clear
11:55 PM 55.4 °F - 55.4 °F 100% 30.06 in 5.0 mi Calm Calm - N/A   Clear